Regional Weather Roundup
Issued by NWS Charleston, WV

Home | Current Version | Previous Version | Text Only | Print | Product List | Glossary Off
Versions: 1 2 3 4 5 6 7 8 9 10 11 12 13 14 15 16 17 18 19 20 21 22 23 24 25 26 27 28 29 30 31 32 33 34 35 36 37 38 39 40 41 42 43 44 45 46 47 48 49 50

000
ASUS41 KRLX 251910
RWRRLX
West Virginia Regional Weather Roundup
National Weather Service Charleston WV
300 PM EDT SUN JUN 25 2017

Note: "fair" indicates few or no clouds below 12,000 feet with no
significant weather and/or obstructions to visibility.

WVZ003-252000-
Northern Panhandle of West Virginia

CITY           SKY/WX    TMP DP  RH WIND       PRES   REMARKS
WHEELING       MOSUNNY   73  47  39 W14G24    30.06F
$$

WVZ009-252000-
Northwest West Virginia

CITY           SKY/WX    TMP DP  RH WIND       PRES   REMARKS
PARKERSBURG    MOSUNNY   77  49  37 W12G18    30.12F
$$

WVZ006-252000-
Western West Virginia

CITY           SKY/WX    TMP DP  RH WIND       PRES   REMARKS
HUNTINGTON     PTSUNNY   77  49  37 W7        30.14F
$$

WVZ015-252000-
West Central West Virginia

CITY           SKY/WX    TMP DP  RH WIND       PRES   REMARKS
CHARLESTON     MOSUNNY   77  46  33 W7        30.14F
$$

WVZ022-031-252000-
North Central West Virginia

CITY           SKY/WX    TMP DP  RH WIND       PRES   REMARKS
CLARKSBURG     SUNNY     74  47  38 W13G21    30.11F
MORGANTOWN     PTSUNNY   74  45  35 NW7       30.10F
$$

WVZ025-035-042-045-252000-
Southern West Virginia

CITY           SKY/WX    TMP DP  RH WIND       PRES   REMARKS
BECKLEY        SUNNY     72  46  39 NW10G17   30.19F
LOGAN            N/A     73  48  40 N6G12     30.18F
BLUEFIELD      CLOUDY    67  46  47 W9G20     30.21F
LEWISBURG      SUNNY     71  42  35 W12G17    30.17F
$$

WVZ047-252000-
Northern Mountains of West Virginia

CITY           SKY/WX    TMP DP  RH WIND       PRES   REMARKS
ELKINS         MOSUNNY   72  44  36 NW10G17   30.14F
$$

WVZ052-252000-
Eastern Panhandle of West Virginia

CITY           SKY/WX    TMP DP  RH WIND       PRES   REMARKS
MARTINSBURG    SUNNY     82  47  29 W16G23    30.01F
PETERSBURG     SUNNY     80  47  30 W18G25    30.07F
$$



USA.gov is the U.S. government's official web portal to all federal, state and local government web resources and services.